TimeCST,TemperatureF,Dew PointF,Humidity,Sea Level PressureIn,VisibilityMPH,Wind Direction,Wind SpeedMPH,Gust SpeedMPH,PrecipitationIn,Events,Conditions,WindDirDegrees,DateUTC
12:54 AM,-6.0,-14.1,68,30.14,10.0,WSW,10.4,-,N/A,,Clear,250,2014-01-29 06:54:00
1:54 AM,-6.0,-13.0,72,30.13,10.0,WSW,12.7,-,N/A,,Clear,240,2014-01-29 07:54:00
2:54 AM,-5.1,-13.0,69,30.12,10.0,WSW,10.4,-,N/A,,Clear,250,2014-01-29 08:54:00
3:54 AM,-5.1,-13.0,69,30.10,10.0,WSW,9.2,-,N/A,,Clear,250,2014-01-29 09:54:00
4:54 AM,-6.0,-13.0,72,30.10,10.0,WSW,9.2,-,N/A,,Clear,250,2014-01-29 10:54:00
5:54 AM,-7.1,-14.1,72,30.10,10.0,WSW,8.1,-,N/A,,Clear,240,2014-01-29 11:54:00
6:54 AM,-11.0,-15.0,83,30.12,10.0,SW,8.1,-,N/A,,Clear,220,2014-01-29 12:54:00
7:54 AM,-9.9,-15.0,78,30.13,10.0,SW,6.9,-,N/A,,Clear,230,2014-01-29 13:54:00
8:54 AM,-5.1,-11.9,72,30.12,10.0,SW,11.5,-,N/A,,Clear,230,2014-01-29 14:54:00
9:54 AM,1.0,-9.0,63,30.10,10.0,WSW,8.1,-,N/A,,Clear,250,2014-01-29 15:54:00
10:54 AM,7.0,-6.0,55,30.10,10.0,SW,10.4,-,N/A,,Clear,230,2014-01-29 16:54:00
11:54 AM,12.0,-4.0,49,30.06,10.0,WSW,11.5,-,N/A,,Clear,240,2014-01-29 17:54:00
12:54 PM,16.0,-0.9,47,30.03,10.0,SW,15.0,24.2,N/A,,Clear,230,2014-01-29 18:54:00
1:54 PM,19.0,1.0,46,30.00,10.0,SW,16.1,-,N/A,,Clear,220,2014-01-29 19:54:00
2:54 PM,19.0,1.0,46,29.97,10.0,SW,11.5,-,N/A,,Clear,220,2014-01-29 20:54:00
3:54 PM,19.9,1.0,44,29.94,10.0,SW,11.5,-,N/A,,Clear,220,2014-01-29 21:54:00
4:54 PM,19.0,-0.0,43,29.92,10.0,South,9.2,-,N/A,,Clear,190,2014-01-29 22:54:00
5:54 PM,17.1,-0.0,47,29.91,10.0,South,12.7,-,N/A,,Clear,180,2014-01-29 23:54:00
6:54 PM,16.0,-0.0,49,29.88,10.0,South,10.4,-,N/A,,Clear,180,2014-01-30 00:54:00
7:54 PM,16.0,3.0,57,29.86,10.0,South,12.7,-,N/A,,Scattered Clouds,190,2014-01-30 01:54:00
8:54 PM,18.0,6.1,60,29.83,10.0,South,10.4,-,N/A,,Clear,190,2014-01-30 02:54:00
9:54 PM,21.0,7.0,55,29.80,10.0,South,11.5,-,N/A,,Partly Cloudy,190,2014-01-30 03:54:00
10:54 PM,23.0,9.0,55,29.77,10.0,South,13.8,-,N/A,,Clear,190,2014-01-30 04:54:00
11:54 PM,24.1,10.9,57,29.74,10.0,SSW,16.1,24.2,N/A,,Clear,200,2014-01-30 05:54:00